GLD166 SWCQ-SWPM

Flight info

Callsign GLD166
Flight time 1h 51m
Altitude 5500
Route 1225S06357W 1222S06326W 1211S06257W 1205S06222W 1154S06158W 1147S06118W
Aircraft C182/M-SDFGIRY/S

Departure

Time 2026-05-05 15:01
Airport Costa Marques Airport (SWCQ)

Arrival

Time 2026-05-05 16:53
Airport Pimenta Bueno Airport (SWPM)
Time Latitude Longitude Altitude Speed Heading
2026-05-05 14:58 -12.41865 -64.25116 570 ft 0 kts 300°
2026-05-05 14:58 -12.41863 -64.25120 567 ft 3 kts 299°
2026-05-05 14:59 -12.41932 -64.25154 564 ft 18 kts 187°
2026-05-05 14:59 -12.42109 -64.25170 564 ft 33 kts 188°
2026-05-05 14:59 -12.42266 -64.25178 550 ft 33 kts 184°
2026-05-05 14:59 -12.42462 -64.25194 540 ft 7 kts 145°
2026-05-05 15:00 -12.42437 -64.25185 540 ft 16 kts
2026-05-05 15:00 -12.42202 -64.25166 567 ft 46 kts
2026-05-05 15:00 -12.41863 -64.25122 653 ft 52 kts
2026-05-05 15:00 -12.41400 -64.25091 721 ft 80 kts
2026-05-05 15:01 -12.40803 -64.25088 991 ft 87 kts 349°
2026-05-05 15:01 -12.40314 -64.25458 1174 ft 104 kts 288°
2026-05-05 15:01 -12.40628 -64.26159 1294 ft 126 kts 217°
2026-05-05 15:01 -12.41415 -64.26603 1461 ft 134 kts 205°
2026-05-05 15:02 -12.42332 -64.26417 1641 ft 147 kts 142°
2026-05-05 15:02 -12.42870 -64.25527 1885 ft 144 kts 110°
2026-05-05 15:02 -12.43050 -64.24534 2142 ft 144 kts 85°
2026-05-05 15:02 -12.43016 -64.23509 2345 ft 143 kts 89°
2026-05-05 15:03 -12.43056 -64.22471 2638 ft 150 kts 88°
2026-05-05 15:03 -12.43082 -64.21370 2860 ft 156 kts 88°
2026-05-05 15:03 -12.43124 -64.20274 3106 ft 152 kts 90°
2026-05-05 15:03 -12.43171 -64.19233 3377 ft 143 kts 89°
2026-05-05 15:04 -12.43219 -64.18166 3635 ft 156 kts 89°
2026-05-05 15:04 -12.43266 -64.17053 3875 ft 156 kts 88°
2026-05-05 15:04 -12.43309 -64.15951 4114 ft 153 kts 89°
2026-05-05 15:04 -12.43350 -64.14878 4327 ft 149 kts 89°
2026-05-05 15:05 -12.43447 -64.12853 4803 ft 136 kts 89°
2026-05-05 15:05 -12.43496 -64.11902 5039 ft 132 kts 88°
2026-05-05 15:05 -12.43544 -64.10980 5270 ft 128 kts 88°
2026-05-05 15:06 -12.43598 -64.10080 5523 ft 129 kts 89°
2026-05-05 15:06 -12.43649 -64.09147 5747 ft 129 kts 88°
2026-05-05 15:06 -12.43699 -64.08252 5994 ft 129 kts 89°
2026-05-05 15:06 -12.43749 -64.07333 6223 ft 131 kts 88°
2026-05-05 15:07 -12.43807 -64.06309 5930 ft 157 kts 89°
2026-05-05 15:07 -12.43859 -64.05130 5582 ft 172 kts 89°
2026-05-05 15:07 -12.43904 -64.03925 5530 ft 165 kts 88°
2026-05-05 15:07 -12.43949 -64.02753 5537 ft 166 kts 88°
2026-05-05 15:08 -12.43865 -64.01581 5549 ft 165 kts 77°
2026-05-05 15:08 -12.43645 -64.00458 5535 ft 162 kts 75°
2026-05-05 15:08 -12.43421 -63.99316 5543 ft 166 kts 76°
2026-05-05 15:08 -12.43202 -63.98166 5553 ft 165 kts 76°
2026-05-05 15:09 -12.42976 -63.97011 5537 ft 165 kts 75°
2026-05-05 15:09 -12.42758 -63.95878 5541 ft 160 kts 75°
2026-05-05 15:09 -12.42540 -63.94757 5537 ft 160 kts 75°
2026-05-05 15:09 -12.42330 -63.93648 5536 ft 158 kts 76°
2026-05-05 15:10 -12.42119 -63.92552 5535 ft 157 kts 75°
2026-05-05 15:10 -12.41910 -63.91457 5532 ft 156 kts 76°
2026-05-05 15:10 -12.41705 -63.90367 5531 ft 156 kts 75°
2026-05-05 15:10 -12.41499 -63.89281 5529 ft 155 kts 75°
2026-05-05 15:11 -12.41290 -63.88197 5535 ft 155 kts 75°
2026-05-05 15:11 -12.41082 -63.87117 5528 ft 154 kts 76°
2026-05-05 15:11 -12.40875 -63.86040 5531 ft 154 kts 75°
2026-05-05 15:11 -12.40699 -63.84959 5528 ft 154 kts 79°
2026-05-05 15:12 -12.40566 -63.83881 5524 ft 155 kts 79°
2026-05-05 15:12 -12.40434 -63.82783 5538 ft 159 kts 79°
2026-05-05 15:12 -12.40290 -63.81637 5540 ft 164 kts 79°
2026-05-05 15:12 -12.40141 -63.80471 5545 ft 166 kts 79°
2026-05-05 15:13 -12.39990 -63.79296 5547 ft 167 kts 79°
2026-05-05 15:13 -12.39839 -63.78117 5549 ft 167 kts 79°
2026-05-05 15:13 -12.39691 -63.76944 5541 ft 164 kts 79°
2026-05-05 15:13 -12.39562 -63.75807 5548 ft 162 kts 79°
2026-05-05 15:14 -12.39418 -63.74650 5549 ft 165 kts 79°
2026-05-05 15:14 -12.39275 -63.73499 5537 ft 161 kts 79°
2026-05-05 15:14 -12.39132 -63.72358 5536 ft 163 kts 79°
2026-05-05 15:14 -12.38985 -63.71220 5533 ft 160 kts 79°
2026-05-05 15:15 -12.38845 -63.70103 5537 ft 158 kts 79°
2026-05-05 15:15 -12.38704 -63.68993 5533 ft 157 kts 79°
2026-05-05 15:15 -12.38561 -63.67885 5533 ft 156 kts 79°
2026-05-05 15:15 -12.38422 -63.66783 5551 ft 157 kts 78°
2026-05-05 15:16 -12.38275 -63.65668 5532 ft 158 kts 79°
2026-05-05 15:16 -12.38134 -63.64561 5533 ft 157 kts 79°
2026-05-05 15:16 -12.37996 -63.63457 5533 ft 156 kts 79°
2026-05-05 15:16 -12.37852 -63.62355 5529 ft 156 kts 78°
2026-05-05 15:17 -12.37711 -63.61255 5532 ft 156 kts 79°
2026-05-05 15:17 -12.37566 -63.60152 5530 ft 156 kts 79°
2026-05-05 15:17 -12.37422 -63.59053 5530 ft 156 kts 79°
2026-05-05 15:17 -12.37283 -63.57954 5531 ft 156 kts 79°
2026-05-05 15:18 -12.37143 -63.56859 5530 ft 155 kts 79°
2026-05-05 15:18 -12.37004 -63.55770 5527 ft 154 kts 79°
2026-05-05 15:18 -12.36866 -63.54682 5530 ft 155 kts 79°
2026-05-05 15:18 -12.36724 -63.53589 5530 ft 155 kts 79°
2026-05-05 15:19 -12.36584 -63.52487 5529 ft 159 kts 79°
2026-05-05 15:19 -12.36444 -63.51377 5530 ft 156 kts 79°
2026-05-05 15:19 -12.36301 -63.50290 5530 ft 156 kts 79°
2026-05-05 15:19 -12.36160 -63.49191 5532 ft 156 kts 79°
2026-05-05 15:20 -12.36016 -63.48094 5530 ft 155 kts 79°
2026-05-05 15:20 -12.35870 -63.46998 5541 ft 158 kts 79°
2026-05-05 15:20 -12.35722 -63.45874 5532 ft 158 kts 79°
2026-05-05 15:20 -12.35574 -63.44761 5529 ft 156 kts 79°
2026-05-05 15:21 -12.35427 -63.43657 5531 ft 157 kts 79°
2026-05-05 15:21 -12.35281 -63.42558 5527 ft 156 kts 78°
2026-05-05 15:21 -12.35134 -63.41455 5529 ft 156 kts 79°
2026-05-05 15:21 -12.34984 -63.40357 5526 ft 155 kts 78°
2026-05-05 15:22 -12.34831 -63.39248 5542 ft 161 kts 79°
2026-05-05 15:22 -12.34668 -63.38112 5531 ft 160 kts 78°
2026-05-05 15:22 -12.34514 -63.36997 5532 ft 157 kts 78°
2026-05-05 15:22 -12.34360 -63.35898 5531 ft 156 kts 79°
2026-05-05 15:23 -12.34200 -63.34822 5527 ft 154 kts 76°
2026-05-05 15:23 -12.33875 -63.33790 5523 ft 152 kts 66°
2026-05-05 15:23 -12.33502 -63.32779 5519 ft 152 kts 66°
2026-05-05 15:23 -12.33132 -63.31767 5520 ft 152 kts 66°
2026-05-05 15:24 -12.32762 -63.30760 5522 ft 151 kts 66°
2026-05-05 15:24 -12.32387 -63.29747 5525 ft 152 kts 66°
2026-05-05 15:24 -12.32013 -63.28723 5522 ft 154 kts 67°
2026-05-05 15:24 -12.31633 -63.27705 5523 ft 153 kts 66°
2026-05-05 15:25 -12.31258 -63.26687 5538 ft 154 kts 67°
2026-05-05 15:25 -12.30871 -63.25639 5531 ft 157 kts 66°
2026-05-05 15:25 -12.30494 -63.24604 5526 ft 154 kts 67°
2026-05-05 15:25 -12.30120 -63.23583 5529 ft 152 kts 66°
2026-05-05 15:26 -12.29756 -63.22581 5524 ft 152 kts 66°
2026-05-05 15:26 -12.29384 -63.21566 5528 ft 153 kts 66°
2026-05-05 15:26 -12.29007 -63.20547 5528 ft 153 kts 66°
2026-05-05 15:26 -12.28629 -63.19527 5525 ft 154 kts 66°
2026-05-05 15:27 -12.28252 -63.18502 5524 ft 153 kts 66°
2026-05-05 15:27 -12.27878 -63.17481 5525 ft 154 kts 66°
2026-05-05 15:27 -12.27504 -63.16456 5524 ft 154 kts 66°
2026-05-05 15:27 -12.27130 -63.15433 5525 ft 153 kts 66°
2026-05-05 15:28 -12.26756 -63.14427 5522 ft 153 kts 66°
2026-05-05 15:28 -12.26383 -63.13406 5525 ft 153 kts 66°
2026-05-05 15:28 -12.26006 -63.12389 5525 ft 153 kts 66°
2026-05-05 15:28 -12.25626 -63.11371 5525 ft 153 kts 66°
2026-05-05 15:29 -12.25245 -63.10349 5545 ft 157 kts 65°
2026-05-05 15:29 -12.24856 -63.09311 5526 ft 155 kts 66°
2026-05-05 15:29 -12.24471 -63.08286 5526 ft 154 kts 66°
2026-05-05 15:29 -12.24090 -63.07269 5527 ft 153 kts 66°
2026-05-05 15:30 -12.23712 -63.06258 5526 ft 152 kts 66°
2026-05-05 15:30 -12.23336 -63.05250 5523 ft 151 kts 66°
2026-05-05 15:30 -12.22957 -63.04245 5525 ft 152 kts 66°
2026-05-05 15:30 -12.22577 -63.03237 5523 ft 152 kts 66°
2026-05-05 15:31 -12.22196 -63.02231 5525 ft 152 kts 66°
2026-05-05 15:31 -12.21814 -63.01226 5522 ft 152 kts 66°
2026-05-05 15:31 -12.21442 -63.00234 5524 ft 151 kts 66°
2026-05-05 15:31 -12.21062 -62.99231 5527 ft 151 kts 66°
2026-05-05 15:32 -12.20682 -62.98228 5525 ft 151 kts 66°
2026-05-05 15:32 -12.20303 -62.97220 5528 ft 152 kts 66°
2026-05-05 15:32 -12.19919 -62.96210 5526 ft 152 kts 65°
2026-05-05 15:32 -12.19540 -62.95197 5522 ft 152 kts 66°
2026-05-05 15:33 -12.19158 -62.94187 5523 ft 153 kts 66°
2026-05-05 15:33 -12.18772 -62.93178 5522 ft 152 kts 66°
2026-05-05 15:33 -12.18390 -62.92168 5522 ft 153 kts 66°
2026-05-05 15:33 -12.18005 -62.91159 5523 ft 152 kts 66°
2026-05-05 15:34 -12.17618 -62.90150 5523 ft 152 kts 66°
2026-05-05 15:34 -12.17233 -62.89143 5523 ft 152 kts 66°
2026-05-05 15:34 -12.16846 -62.88138 5524 ft 151 kts 66°
2026-05-05 15:34 -12.16461 -62.87138 5522 ft 151 kts 66°
2026-05-05 15:35 -12.16075 -62.86133 5522 ft 152 kts 66°
2026-05-05 15:35 -12.15689 -62.85142 5522 ft 152 kts 66°
2026-05-05 15:35 -12.15297 -62.84140 5524 ft 152 kts 66°
2026-05-05 15:35 -12.14903 -62.83138 5525 ft 152 kts 65°
2026-05-05 15:36 -12.14515 -62.82136 5527 ft 152 kts 66°
2026-05-05 15:36 -12.14128 -62.81132 5525 ft 151 kts 66°
2026-05-05 15:36 -12.13743 -62.80134 5524 ft 150 kts 66°
2026-05-05 15:36 -12.13356 -62.79138 5524 ft 151 kts 65°
2026-05-05 15:37 -12.12974 -62.78139 5525 ft 151 kts 66°
2026-05-05 15:37 -12.12586 -62.77140 5525 ft 151 kts 65°
2026-05-05 15:37 -12.12205 -62.76148 5526 ft 151 kts 66°
2026-05-05 15:37 -12.11819 -62.75148 5527 ft 152 kts 65°
2026-05-05 15:38 -12.11432 -62.74144 5527 ft 151 kts 65°
2026-05-05 15:38 -12.11051 -62.73140 5526 ft 151 kts 66°
2026-05-05 15:38 -12.10665 -62.72139 5526 ft 151 kts 66°
2026-05-05 15:38 -12.10276 -62.71143 5523 ft 151 kts 65°
2026-05-05 15:39 -12.09894 -62.70150 5517 ft 149 kts 66°
2026-05-05 15:39 -12.09516 -62.69169 5523 ft 149 kts 65°
2026-05-05 15:39 -12.09136 -62.68179 5529 ft 151 kts 65°
2026-05-05 15:39 -12.08744 -62.67179 5531 ft 152 kts 66°
2026-05-05 15:40 -12.08349 -62.66189 5529 ft 153 kts 65°
2026-05-05 15:40 -12.07951 -62.65181 5528 ft 153 kts 65°
2026-05-05 15:40 -12.07553 -62.64181 5531 ft 152 kts 65°
2026-05-05 15:40 -12.07155 -62.63177 5528 ft 152 kts 66°
2026-05-05 15:41 -12.06753 -62.62178 5528 ft 152 kts 65°
2026-05-05 15:41 -12.06360 -62.61176 5530 ft 151 kts 66°
2026-05-05 15:41 -12.06264 -62.60102 5510 ft 154 kts 90°
2026-05-05 15:41 -12.06364 -62.59010 5512 ft 155 kts 92°
2026-05-05 15:42 -12.06481 -62.57912 5512 ft 155 kts 92°
2026-05-05 15:42 -12.06590 -62.56820 5516 ft 154 kts 91°
2026-05-05 15:42 -12.06700 -62.55725 5511 ft 155 kts 92°
2026-05-05 15:42 -12.06815 -62.54652 5510 ft 153 kts 93°
2026-05-05 15:43 -12.06922 -62.53566 5512 ft 154 kts 92°
2026-05-05 15:43 -12.07032 -62.52477 5509 ft 154 kts 92°
2026-05-05 15:43 -12.07144 -62.51392 5514 ft 153 kts 92°
2026-05-05 15:43 -12.07257 -62.50302 5515 ft 154 kts 92°
2026-05-05 15:44 -12.07374 -62.49213 5512 ft 154 kts 92°
2026-05-05 15:44 -12.07492 -62.48130 5516 ft 153 kts 92°
2026-05-05 15:44 -12.07604 -62.47047 5514 ft 153 kts 92°
2026-05-05 15:44 -12.07718 -62.45961 5513 ft 154 kts 92°
2026-05-05 15:45 -12.07829 -62.44866 5515 ft 155 kts 92°
2026-05-05 15:45 -12.07938 -62.43767 5513 ft 155 kts 92°
2026-05-05 15:45 -12.08046 -62.42671 5516 ft 155 kts 92°
2026-05-05 15:45 -12.08156 -62.41571 5516 ft 155 kts 92°
2026-05-05 15:46 -12.08264 -62.40486 5512 ft 154 kts 92°
2026-05-05 15:46 -12.08372 -62.39392 5520 ft 156 kts 92°
2026-05-05 15:46 -12.08480 -62.38276 5516 ft 158 kts 92°
2026-05-05 15:46 -12.08586 -62.37170 5516 ft 155 kts 92°
2026-05-05 15:47 -12.08695 -62.36073 5519 ft 156 kts 92°
2026-05-05 15:47 -12.08752 -62.35341 5514 ft 155 kts 87°
2026-05-05 15:47 -12.08622 -62.34253 5510 ft 154 kts 78°
2026-05-05 15:47 -12.08435 -62.33179 5507 ft 153 kts 73°
2026-05-05 15:48 -12.08143 -62.32124 5531 ft 157 kts 71°
2026-05-05 15:48 -12.07837 -62.31048 5509 ft 156 kts 71°
2026-05-05 15:48 -12.07531 -62.29993 5507 ft 153 kts 71°
2026-05-05 15:48 -12.07233 -62.28944 5505 ft 153 kts 71°
2026-05-05 15:49 -12.06938 -62.27905 5511 ft 151 kts 71°
2026-05-05 15:49 -12.06640 -62.26852 5532 ft 157 kts 71°
2026-05-05 15:49 -12.06340 -62.25786 5505 ft 154 kts 71°
2026-05-05 15:49 -12.06043 -62.24737 5512 ft 153 kts 71°
2026-05-05 15:50 -12.05746 -62.23711 5504 ft 152 kts 71°
2026-05-05 15:50 -12.05447 -62.22676 5503 ft 153 kts 71°
2026-05-05 15:50 -12.05141 -62.21640 5506 ft 152 kts 70°
2026-05-05 15:50 -12.04844 -62.20612 5518 ft 150 kts 70°
2026-05-05 15:51 -12.04547 -62.19591 5507 ft 150 kts 71°
2026-05-05 15:51 -12.04250 -62.18567 5498 ft 152 kts 71°
2026-05-05 15:51 -12.03955 -62.17515 5515 ft 156 kts 71°
2026-05-05 15:51 -12.03641 -62.16466 5512 ft 153 kts 70°
2026-05-05 15:52 -12.03337 -62.15425 5514 ft 152 kts 71°
2026-05-05 15:52 -12.03032 -62.14393 5519 ft 151 kts 71°
2026-05-05 15:52 -12.02724 -62.13359 5509 ft 155 kts 70°
2026-05-05 15:52 -12.02415 -62.12311 5504 ft 153 kts 71°
2026-05-05 15:53 -12.02102 -62.11280 5506 ft 151 kts 70°
2026-05-05 15:53 -12.01802 -62.10257 5499 ft 153 kts 70°
2026-05-05 15:53 -12.01492 -62.09198 5529 ft 159 kts 71°
2026-05-05 15:53 -12.01165 -62.08101 5509 ft 160 kts 71°
2026-05-05 15:54 -12.00845 -62.07034 5515 ft 155 kts 71°
2026-05-05 15:54 -12.00527 -62.05964 5509 ft 158 kts 71°
2026-05-05 15:54 -12.00211 -62.04907 5516 ft 154 kts 70°
2026-05-05 15:54 -11.99888 -62.03863 5523 ft 156 kts 70°
2026-05-05 15:55 -11.99567 -62.02797 5522 ft 155 kts 71°
2026-05-05 15:55 -11.99245 -62.01754 5509 ft 152 kts 70°
2026-05-05 15:55 -11.98939 -62.00730 5510 ft 149 kts 71°
2026-05-05 15:55 -11.98637 -61.99717 5522 ft 150 kts 71°
2026-05-05 15:56 -11.98325 -61.98684 5527 ft 155 kts 70°
2026-05-05 15:56 -11.98002 -61.97628 5503 ft 154 kts 70°
2026-05-05 15:56 -11.97695 -61.96610 5517 ft 151 kts 70°
2026-05-05 15:56 -11.97069 -61.95779 5476 ft 150 kts 37°
2026-05-05 15:57 -11.96208 -61.95144 5500 ft 155 kts 37°
2026-05-05 15:57 -11.95511 -61.94311 5472 ft 156 kts 55°
2026-05-05 15:57 -11.94995 -61.93348 5468 ft 155 kts 64°
2026-05-05 15:57 -11.94614 -61.92321 5466 ft 153 kts 68°
2026-05-05 15:58 -11.94239 -61.91302 5466 ft 153 kts 66°
2026-05-05 15:58 -11.93875 -61.90291 5480 ft 151 kts 67°
2026-05-05 15:58 -11.93502 -61.89274 5475 ft 155 kts 67°
2026-05-05 15:58 -11.93121 -61.88237 5466 ft 157 kts 68°
2026-05-05 15:59 -11.92755 -61.87223 5468 ft 152 kts 68°
2026-05-05 15:59 -11.92443 -61.86201 5460 ft 151 kts 75°
2026-05-05 15:59 -11.92353 -61.85134 5456 ft 151 kts 88°
2026-05-05 15:59 -11.92432 -61.84036 5453 ft 156 kts 91°
2026-05-05 16:00 -11.92515 -61.82928 5453 ft 156 kts 91°
2026-05-05 16:00 -11.92599 -61.81844 5466 ft 152 kts 91°
2026-05-05 16:00 -11.92678 -61.80758 5460 ft 153 kts 91°
2026-05-05 16:00 -11.92758 -61.79670 5457 ft 155 kts 92°
2026-05-05 16:01 -11.92840 -61.78583 5455 ft 153 kts 91°
2026-05-05 16:01 -11.92924 -61.77492 5468 ft 157 kts 91°
2026-05-05 16:01 -11.93005 -61.76389 5458 ft 156 kts 91°
2026-05-05 16:01 -11.93076 -61.75293 5455 ft 154 kts 90°
2026-05-05 16:02 -11.93160 -61.74199 5465 ft 154 kts 91°
2026-05-05 16:02 -11.93243 -61.73101 5463 ft 155 kts 91°
2026-05-05 16:02 -11.93317 -61.72005 5452 ft 154 kts 91°
2026-05-05 16:02 -11.93399 -61.70911 5453 ft 156 kts 91°
2026-05-05 16:03 -11.93483 -61.69801 5461 ft 156 kts 91°
2026-05-05 16:03 -11.93566 -61.68692 5455 ft 156 kts 91°
2026-05-05 16:03 -11.93651 -61.67601 5461 ft 153 kts 91°
2026-05-05 16:03 -11.93740 -61.66501 5468 ft 157 kts 91°
2026-05-05 16:04 -11.93831 -61.65381 5452 ft 157 kts 91°
2026-05-05 16:04 -11.93704 -61.64323 5422 ft 150 kts 62°
2026-05-05 16:04 -11.93056 -61.63501 5406 ft 147 kts 49°
2026-05-05 16:04 -11.92406 -61.62694 5418 ft 150 kts 50°
2026-05-05 16:05 -11.91749 -61.61875 5417 ft 152 kts 50°
2026-05-05 16:05 -11.91066 -61.61047 5406 ft 152 kts 50°
2026-05-05 16:05 -11.90393 -61.60227 5413 ft 150 kts 50°
2026-05-05 16:05 -11.89724 -61.59413 5421 ft 149 kts 50°
2026-05-05 16:06 -11.89050 -61.58594 5413 ft 151 kts 50°
2026-05-05 16:06 -11.88382 -61.57791 5417 ft 147 kts 50°
2026-05-05 16:06 -11.87712 -61.56985 5409 ft 149 kts 50°
2026-05-05 16:06 -11.87051 -61.56177 5403 ft 148 kts 50°
2026-05-05 16:07 -11.86386 -61.55379 5411 ft 146 kts 50°
2026-05-05 16:07 -11.85718 -61.54580 5403 ft 148 kts 49°
2026-05-05 16:07 -11.85057 -61.53778 5415 ft 150 kts 50°
2026-05-05 16:07 -11.84446 -61.52920 5404 ft 150 kts 58°
2026-05-05 16:08 -11.83938 -61.51994 5403 ft 149 kts 60°
2026-05-05 16:08 -11.83432 -61.51070 5414 ft 150 kts 60°
2026-05-05 16:08 -11.82907 -61.50140 5414 ft 152 kts 59°
2026-05-05 16:08 -11.82386 -61.49206 5416 ft 149 kts 60°
2026-05-05 16:09 -11.81903 -61.48255 5414 ft 153 kts 66°
2026-05-05 16:09 -11.81527 -61.47257 5410 ft 151 kts 68°
2026-05-05 16:09 -11.81147 -61.46257 5420 ft 151 kts 67°
2026-05-05 16:09 -11.80768 -61.45244 5401 ft 153 kts 68°
2026-05-05 16:10 -11.80393 -61.44239 5408 ft 151 kts 68°
2026-05-05 16:10 -11.80017 -61.43233 5412 ft 152 kts 68°
2026-05-05 16:10 -11.79636 -61.42226 5409 ft 153 kts 67°
2026-05-05 16:10 -11.79254 -61.41206 5404 ft 154 kts 68°
2026-05-05 16:11 -11.78870 -61.40182 5418 ft 156 kts 68°
2026-05-05 16:11 -11.77707 -61.37150 5403 ft 152 kts 68°
2026-05-05 16:12 -11.77321 -61.36152 5403 ft 152 kts 67°
2026-05-05 16:12 -11.76557 -61.34165 5415 ft 151 kts 67°
2026-05-05 16:13 -11.75399 -61.31143 5401 ft 150 kts 67°
2026-05-05 16:13 -11.75021 -61.30158 5419 ft 149 kts 68°
2026-05-05 16:13 -11.74636 -61.29169 5414 ft 150 kts 67°
2026-05-05 16:14 -11.73883 -61.27211 5414 ft 152 kts 67°
2026-05-05 16:14 -11.73098 -61.25202 5404 ft 150 kts 67°
2026-05-05 16:15 -11.72318 -61.23176 5402 ft 154 kts 67°
2026-05-05 16:15 -11.71549 -61.21184 5406 ft 151 kts 67°
2026-05-05 16:16 -11.70775 -61.19180 5403 ft 152 kts 67°
2026-05-05 16:16 -11.70006 -61.17201 5403 ft 150 kts 67°
2026-05-05 16:17 -11.69227 -61.15208 5409 ft 153 kts 67°
2026-05-05 16:17 -11.68833 -61.14191 5404 ft 156 kts 67°
2026-05-05 16:18 -11.68030 -61.12142 5426 ft 159 kts 67°
2026-05-05 16:18 -11.67614 -61.11089 5423 ft 160 kts 67°
2026-05-05 16:18 -11.66798 -61.09036 5410 ft 153 kts 66°
2026-05-05 16:19 -11.66400 -61.08034 5412 ft 151 kts 67°
2026-05-05 16:19 -11.66006 -61.07046 5405 ft 149 kts 67°
2026-05-05 16:19 -11.65231 -61.05095 5401 ft 148 kts 67°
2026-05-05 16:20 -11.64461 -61.03153 5411 ft 150 kts 67°
2026-05-05 16:20 -11.62956 -61.01842 5354 ft 154 kts 14°
2026-05-05 16:21 -11.60862 -61.01391 5355 ft 153 kts 14°
2026-05-05 16:22 -11.57713 -61.00697 5362 ft 155 kts 15°
2026-05-05 16:22 -11.55600 -61.00235 5366 ft 154 kts 15°
2026-05-05 16:23 -11.53511 -60.99783 5366 ft 155 kts 15°
2026-05-05 16:23 -11.52458 -60.99555 5361 ft 155 kts 14°
2026-05-05 16:23 -11.50363 -60.99107 5368 ft 154 kts 14°
2026-05-05 16:24 -11.49305 -60.98877 5369 ft 156 kts 14°
2026-05-05 16:24 -11.48251 -60.98651 5369 ft 155 kts 14°
2026-05-05 16:24 -11.46141 -60.98192 5374 ft 155 kts 14°
2026-05-05 16:25 -11.45084 -60.97957 5368 ft 155 kts 14°
2026-05-05 16:25 -11.42993 -60.97498 5368 ft 155 kts 14°
2026-05-05 16:25 -11.41936 -60.97258 5362 ft 155 kts 15°
2026-05-05 16:26 -11.39826 -60.96798 5370 ft 156 kts 14°
2026-05-05 16:26 -11.37701 -60.96347 5374 ft 154 kts 15°
2026-05-05 16:27 -11.36656 -60.96129 5366 ft 151 kts 14°
2026-05-05 16:27 -11.35612 -60.95910 5377 ft 156 kts 14°
2026-05-05 16:27 -11.34541 -60.95679 5380 ft 158 kts 15°
2026-05-05 16:27 -11.33471 -60.95454 5364 ft 156 kts 14°
2026-05-05 16:28 -11.32420 -60.95228 5372 ft 153 kts 14°
2026-05-05 16:28 -11.31371 -60.95005 5359 ft 152 kts 14°
2026-05-05 16:28 -11.30343 -60.94787 5360 ft 151 kts 14°
2026-05-05 16:28 -11.29319 -60.95023 5306 ft 162 kts 327°
2026-05-05 16:29 -11.28707 -60.96006 5276 ft 167 kts 296°
2026-05-05 16:29 -11.28252 -60.97074 5293 ft 169 kts 297°
2026-05-05 16:29 -11.27777 -60.98181 5286 ft 171 kts 296°
2026-05-05 16:29 -11.27307 -60.99279 5280 ft 167 kts 296°
2026-05-05 16:30 -11.26837 -61.00368 5284 ft 168 kts 296°
2026-05-05 16:30 -11.26370 -61.01459 5300 ft 169 kts 296°
2026-05-05 16:30 -11.25894 -61.02557 5291 ft 169 kts 296°
2026-05-05 16:30 -11.25429 -61.03647 5281 ft 167 kts 296°
2026-05-05 16:31 -11.24970 -61.04731 5281 ft 168 kts 296°
2026-05-05 16:31 -11.24505 -61.05815 5287 ft 168 kts 296°
2026-05-05 16:31 -11.24037 -61.06916 5286 ft 168 kts 296°
2026-05-05 16:31 -11.23581 -61.07997 5295 ft 168 kts 296°
2026-05-05 16:32 -11.23120 -61.09082 5286 ft 166 kts 296°
2026-05-05 16:32 -11.22666 -61.10151 5286 ft 164 kts 296°
2026-05-05 16:32 -11.22236 -61.11236 5279 ft 168 kts 287°
2026-05-05 16:32 -11.22442 -61.12409 5228 ft 176 kts 240°
2026-05-05 16:33 -11.23182 -61.13403 5233 ft 176 kts 232°
2026-05-05 16:33 -11.23935 -61.14391 5239 ft 178 kts 232°
2026-05-05 16:33 -11.24684 -61.15380 5223 ft 174 kts 232°
2026-05-05 16:33 -11.25429 -61.16356 5240 ft 177 kts 232°
2026-05-05 16:34 -11.26180 -61.17347 5230 ft 176 kts 231°
2026-05-05 16:34 -11.26670 -61.17997 5233 ft 174 kts 232°
2026-05-05 16:34 -11.27408 -61.18968 5229 ft 173 kts 232°
2026-05-05 16:34 -11.28142 -61.19938 5228 ft 173 kts 232°
2026-05-05 16:35 -11.29115 -61.21219 5229 ft 172 kts 232°
2026-05-05 16:35 -11.29855 -61.22192 5230 ft 175 kts 232°
2026-05-05 16:35 -11.30356 -61.22851 5226 ft 173 kts 232°
2026-05-05 16:35 -11.31328 -61.24125 5224 ft 172 kts 232°
2026-05-05 16:36 -11.31818 -61.24756 5222 ft 170 kts 232°
2026-05-05 16:36 -11.32561 -61.25715 5231 ft 175 kts 232°
2026-05-05 16:36 -11.33322 -61.26693 5227 ft 176 kts 231°
2026-05-05 16:36 -11.34072 -61.27666 5219 ft 172 kts 232°
2026-05-05 16:37 -11.34806 -61.28617 5223 ft 170 kts 232°
2026-05-05 16:37 -11.35540 -61.29573 5230 ft 174 kts 232°
2026-05-05 16:37 -11.36292 -61.30549 5229 ft 176 kts 231°
2026-05-05 16:37 -11.37048 -61.31531 5225 ft 175 kts 232°
2026-05-05 16:38 -11.37810 -61.32518 5233 ft 178 kts 232°
2026-05-05 16:38 -11.38575 -61.33508 5234 ft 177 kts 232°
2026-05-05 16:38 -11.39340 -61.34483 5220 ft 175 kts 231°
2026-05-05 16:38 -11.40100 -61.35456 5219 ft 174 kts 232°
2026-05-05 16:39 -11.40850 -61.36417 5216 ft 172 kts 232°
2026-05-05 16:39 -11.41645 -61.37327 5205 ft 174 kts 216°
2026-05-05 16:39 -11.42775 -61.37589 5144 ft 172 kts 171°
2026-05-05 16:39 -11.43933 -61.37301 5147 ft 172 kts 163°
2026-05-05 16:40 -11.45095 -61.37001 5146 ft 172 kts 163°
2026-05-05 16:40 -11.46255 -61.36704 5144 ft 172 kts 163°
2026-05-05 16:40 -11.47407 -61.36421 5146 ft 169 kts 164°
2026-05-05 16:40 -11.48554 -61.36134 5146 ft 169 kts 163°
2026-05-05 16:41 -11.49684 -61.35851 5138 ft 166 kts 163°
2026-05-05 16:41 -11.50808 -61.35571 5145 ft 167 kts 164°
2026-05-05 16:41 -11.51934 -61.35289 5152 ft 167 kts 163°
2026-05-05 16:41 -11.53072 -61.34998 5152 ft 171 kts 163°
2026-05-05 16:42 -11.54231 -61.34698 5144 ft 171 kts 163°
2026-05-05 16:42 -11.55370 -61.34407 5146 ft 167 kts 164°
2026-05-05 16:42 -11.56491 -61.34119 5141 ft 165 kts 163°
2026-05-05 16:42 -11.57599 -61.33834 5142 ft 163 kts 163°
2026-05-05 16:43 -11.58700 -61.33551 5152 ft 166 kts 163°
2026-05-05 16:43 -11.59828 -61.33257 5149 ft 167 kts 163°
2026-05-05 16:43 -11.60954 -61.32964 5150 ft 171 kts 164°
2026-05-05 16:43 -11.62066 -61.32570 5129 ft 166 kts 143°
2026-05-05 16:44 -11.62648 -61.31612 5043 ft 163 kts 103°
2026-05-05 16:44 -11.62915 -61.30478 4907 ft 167 kts 100°
2026-05-05 16:44 -11.63115 -61.29297 4738 ft 171 kts 89°
2026-05-05 16:44 -11.62650 -61.28213 4507 ft 172 kts 46°
2026-05-05 16:45 -11.61752 -61.27435 4336 ft 167 kts 39°
2026-05-05 16:45 -11.60869 -61.26681 4133 ft 162 kts 40°
2026-05-05 16:45 -11.60072 -61.25992 3876 ft 136 kts 39°
2026-05-05 16:45 -11.59393 -61.25409 3611 ft 122 kts 39°
2026-05-05 16:46 -11.58762 -61.24859 3321 ft 119 kts 39°
2026-05-05 16:46 -11.58158 -61.24268 3012 ft 123 kts 44°
2026-05-05 16:46 -11.57683 -61.23550 2663 ft 122 kts 67°
2026-05-05 16:46 -11.57649 -61.22690 2331 ft 122 kts 95°
2026-05-05 16:47 -11.57790 -61.21831 2133 ft 127 kts 98°
2026-05-05 16:47 -11.58070 -61.20906 2012 ft 145 kts 115°
2026-05-05 16:47 -11.58670 -61.20031 1876 ft 155 kts 130°
2026-05-05 16:47 -11.59462 -61.19290 1731 ft 156 kts 140°
2026-05-05 16:48 -11.60296 -61.18657 1726 ft 146 kts 144°
2026-05-05 16:48 -11.61184 -61.18163 1722 ft 144 kts 161°
2026-05-05 16:48 -11.62170 -61.18084 1709 ft 146 kts 189°
2026-05-05 16:48 -11.63105 -61.18477 1695 ft 146 kts 217°
2026-05-05 16:49 -11.63835 -61.19193 1700 ft 146 kts 228°
2026-05-05 16:49 -11.64529 -61.19948 1698 ft 146 kts 227°
2026-05-05 16:49 -11.65218 -61.20704 1699 ft 146 kts 228°
2026-05-05 16:49 -11.65910 -61.21458 1690 ft 145 kts 228°
2026-05-05 16:50 -11.66569 -61.22171 1660 ft 122 kts 228°
2026-05-05 16:50 -11.67290 -61.22399 1504 ft 108 kts 164°
2026-05-05 16:50 -11.67736 -61.21881 1360 ft 95 kts 98°
2026-05-05 16:50 -11.67465 -61.21349 1241 ft 82 kts 53°
2026-05-05 16:51 -11.67229 -61.20847 1166 ft 74 kts 60°
2026-05-05 16:51 -11.66899 -61.20479 1079 ft 71 kts 43°
2026-05-05 16:51 -11.66535 -61.20097 1032 ft 77 kts 40°
2026-05-05 16:51 -11.66124 -61.19738 966 ft 80 kts 37°
2026-05-05 16:52 -11.65686 -61.19365 910 ft 84 kts 41°
2026-05-05 16:52 -11.65251 -61.18959 841 ft 84 kts 42°
2026-05-05 16:52 -11.64841 -61.18552 765 ft 81 kts 44°
2026-05-05 16:52 -11.64438 -61.18166 693 ft 77 kts 41°
2026-05-05 16:53 -11.64066 -61.17816 686 ft 62 kts 43°
2026-05-05 16:53 -11.63893 -61.17658 689 ft 0 kts 247°
2026-05-05 16:53 -11.63931 -61.17691 688 ft 17 kts 220°
2026-05-05 16:53 -11.64051 -61.17805 685 ft 27 kts 223°
2026-05-05 16:54 -11.64196 -61.17942 687 ft 30 kts 223°
2026-05-05 16:54 -11.64355 -61.18091 686 ft 29 kts 222°
2026-05-05 16:54 -11.64412 -61.18110 689 ft 0 kts 142°
2026-05-05 16:58 -11.64426 -61.18099 688 ft 10 kts 140°
2026-05-05 16:58 -11.64441 -61.18082 688 ft 0 kts 123°